User: anonymous   Login
Location: Unspecified
(0.0000°N, 0.0000°E)
Time: 03:52:41
(UTC+00:00)
Language:

COSMOS 2409 - Orbit

View from above orbital plane
View from above orbital plane
View from above satellite
View from above satellite

Ground track
Ground track

The orbit data is extracted from the following two-line orbital elements,

1 28380U 04028A   18112.60406264  .00000035  00000-0  20531-4 0  9999
2 28380  82.9576 119.2992 0038126 300.1185  59.6203 13.76052266690559
Epoch (UTC): 22 April 2018 14:29:51
Eccentricity: 0.0038126
inclination: 82.9576°
perigee height: 950 km
apogee height: 1006 km
right ascension of ascending node: 119.2992°
argument of perigee: 300.1185°
revolutions per day: 13.76052266
mean anomaly at epoch: 59.6203°
orbit number at epoch: 69055

The dashed part of the orbit path shows where the satellite is in the earth's shadow,  

DLR